Tracking 29040 objects as of 16-Jun-2024
HD Live streaming from Space Station
objects crossing your sky now

STARLINK-1338

Track STARLINK-1338 now!
10-day predictions


NORAD ID: 45532
Int'l Code: 2020-025B
Perigee: 553.3 km
Apogee: 555.3 km
Inclination: 53.1 °
Period: 95.6 minutes
Semi major axis: 6925 km
RCS: Unknown
Launch date: April 22, 2020
Source: United States (US)
Launch site: AIR FORCE EASTERN TEST RANGE (AFETR)
Your satellite tracking list
Your tracking list is empty




NASA's NSSDC Master Catalog

Two Line Element Set (TLE):
1 45532U 20025B   24168.41043300  .00003760  00000-0  27104-3 0  9997
2 45532  53.0548  60.5429 0001471  87.5340 272.5817 15.06422152229948
Source of the keplerian elements: AFSPC